Location: Ku?niki
(51.4449°N, 17.8974°E)
Time: 07:39:44
(UTC+00:00)

Landsat 7 - Pass Details

Date: 18 September 2020
Orbit: 701 x 703 km, 98.1° (Epoch: 21 October)

Event Time Altitude Azimuth Distance (km) Brightness Sun altitude
Exits shadow 19:25:45 60° 94° (E) 806 3.8 -22.8°
Maximum altitude 19:26:05 62° 71° (ENE) 792 3.8 -22.9°
Drops below altitude 10° 19:30:49 10° 351° (N) 2,184 6.9 -23.5°
Sets 19:33:05 0° 348° (NNW) 3,107 7.9 -23.7°
